www.pogodaiklimat.ru

Погода и климат >> Архив погоды >> Россия >> Краснодарский край >> Имеретинка


ПОГОДА в Имеретинке

  • Прогноз погоды в Имеретинке
  • Монитор погоды в Имеретинке

АРХИВ ПОГОДЫ в Имеретинке

Время (UTC), дата Ветер
(напр.,м/с)
 
Видим.   Явления Облачность Т
(С)
Тd
(С)
f
(%)
Тe
(С)
Тes
(С)
Комфортность P
(гПа)
Po
(гПа)
Тmin
(С)
Tmax
(С)
R
(мм)
R24
(мм)
S
(см)
09 18.06 ЮЗ 2 н/о н/о +30.2 +22.6 64 +40 +40 очень
душно
1008.4 1008.3
12 18.06 З 2 н/о н/о +29.4 +23.4 70 +40 +40 очень
душно
1007.7 1007.6
15 18.06 З 1 н/о н/о +27.7 +24.9 85 +40 +40 очень
душно
1006.7 1006.6 +31.5
18 18.06 штиль 0 н/о н/о +24.4 +24.4 100 +34 +34 очень
душно
1007.7 1007.6
21 18.06 штиль 0 н/о н/о +22.2 +22.2 100 +30 +30 очень
душно
1008.4 1008.3
00 19.06 С 1 н/о н/о +20.9 +20.9 100 +27 +27 душно 1008.1 1008.0
03 19.06 С 1 н/о н/о +21.2 +19.3 89 +26 +26 душно 1007.2 1007.1 +20.8
06 19.06 В 2 н/о н/о +25.7 +23.2 86 +34 +34 очень
душно
1008.4 1008.3 +20.3
09 19.06 ЮВ 2 н/о н/о +27.0 +24.1 84 +37 +37 очень
душно
1008.7 1008.6
12 19.06 ЮЗ 2 н/о н/о +28.3 +25.3 84 +41 +41 опасность
перегрева
1007.6 1007.5
15 19.06 З 1 н/о н/о +26.6 +26.4 99 +40 +40 очень
душно
1007.4 1007.3 +30.2 0.4
18 19.06 штиль 0 н/о н/о +22.4 +22.4 100 +30 +30 очень
душно
1007.5 1007.4
21 19.06 С 1 н/о н/о +22.0 +22.0 100 +29 +29 очень
душно
1007.6 1007.5
00 20.06 С 1 н/о н/о +20.4 +20.4 100 +26 +26 душно 1006.5 1006.4
03 20.06 С 1 н/о н/о +20.2 +20.2 100 +25 +25 комфорт 1006.0 1005.9 +20.2 3
06 20.06 ЮЗ 2 н/о н/о +27.8 +22.1 71 +36 +36 очень
душно
1005.9 1005.8 +19.4
09 20.06 З 2 н/о н/о +28.6 +25.2 82 +42 +42 опасность
перегрева
1005.8 1005.7
12 20.06 СЗ 2 н/о н/о +29.2 +26.4 85 +45 +45 опасность
перегрева
1004.9 1004.8
15 20.06 СЗ 1 н/о н/о +28.9 +22.2 67 +38 +38 очень
душно
1003.9 1003.8 +30.9
18 20.06 ЮВ 5-10
{12}
н/о н/о +25.0 +25.0 100 +36 +36 очень
душно
1007.0 1006.9
21 20.06 В 1 н/о н/о +24.0 +24.0 100 +33 +33 очень
душно
1007.2 1007.1
00 21.06 С 1 н/о н/о +21.7 +21.5 99 +28 +28 душно 1007.0 1006.9
06 21.06 СВ 1 н/о н/о +25.0 +21.1 79 +32 +32 очень
душно
1007.7 1007.6 +21.3
09 21.06 ЮЗ 2 н/о н/о +27.8 +24.8 84 +40 +40 очень
душно
1008.5 1008.4
12 21.06 З 2 н/о н/о +28.1 +25.7 87 +42 +42 опасность
перегрева
1008.1 1008.0
15 21.06 З 1 н/о н/о +27.2 +26.0 93 +41 +41 опасность
перегрева
1007.5 1007.4 +30.7
18 21.06 штиль 0 н/о н/о +25.9 +25.9 100 +38 +38 очень
душно
1008.5 1008.4
21 21.06 СЗ 1 н/о н/о +25.6 +25.6 100 +37 +37 очень
душно
1009.0 1008.9
00 22.06 С 1 н/о н/о +22.8 +22.8 100 +31 +31 очень
душно
1008.6 1008.5
03 22.06 С 1 н/о н/о +22.6 +22.4 99 +31 +31 очень
душно
1008.9 1008.8 +22.6
06 22.06 С 1 н/о н/о +26.1 +22.4 80 +34 +34 очень
душно
1009.4 1009.3 +22.2
09 22.06 ЮЗ 3 н/о н/о +31.0 +24.9 70 +44 +44 опасность
перегрева
1009.8 1009.7
12 22.06 ЮЗ 2 н/о н/о +31.5 +25.1 69 +45 +45 опасность
перегрева
1009.8 1009.7
15 22.06 З 2 н/о н/о +28.0 +26.4 91 +43 +43 опасность
перегрева
1009.0 1008.9 +32.0
18 22.06 штиль 0 н/о н/о +25.5 +25.5 100 +37 +37 очень
душно
1009.6 1009.5
21 22.06 СЗ 1 н/о н/о +23.4 +23.4 100 +33 +33 очень
душно
1010.4 1010.3
00 23.06 С 1 н/о н/о +23.8 +23.8 100 +32 +32 очень
душно
1010.8 1010.7
03 23.06 С 1 н/о н/о +23.1 +23.1 100 +32 +32 очень
душно
1010.7 1010.6 +22.9
06 23.06 В 1 н/о н/о +28.8 +22.3 68 +38 +38 очень
душно
1011.3 1011.2 +22.7
09 23.06 ЮЗ 2 н/о н/о +28.9 +22.9 70 +38 +38 очень
душно
1011.4 1011.3
15 23.06 ЮЗ 2 н/о н/о +28.8 +25.2 81 +42 +42 опасность
перегрева
1010.9 1010.8 +30.5
21 23.06 В 2 н/о н/о +25.8 +25.8 100 +38 +38 очень
душно
1011.9 1011.8
00 24.06 В 1 н/о н/о +24.5 +24.5 100 +34 +34 очень
душно
1011.9 1011.8
03 24.06 СВ 1 н/о н/о +23.1 +23.1 100 +32 +32 очень
душно
1012.2 1012.1 +23.1
06 24.06 С 1 н/о н/о +25.6 +25.4 99 +37 +37 очень
душно
1012.7 1012.6 +23.0
12 24.06 ЮЗ 2 н/о н/о +30.8 +23.5 65 +42 +42 опасность
перегрева
1012.6 1012.5

 

Местоположение метеостанции Имеретинка (Краснодарский край, Россия): широта 43.40 долгота 39.95 высота над уровнем моря 2 м.

В архиве по умолчанию представлена погода в Имеретинке за последнюю неделю. Архивные данные за месяц целиком и за предыдущие месяцы, начиная с января 2011 года, Вы можете получить, выбрав интересующий диапазон дат из раскрывающегося списка и нажав кнопку "Ввод!".


*Определитесь, кто Вы:
робот инопланетянин человек

Внимание! Время в таблицах - всемирное. Для получения местного времени необходимо прибавить поправку, которая равна 3 ч.

Смотрите также архив погоды в соседних городах и на ближайших метеорологических станциях:

Погода в Сочи аэропорт (Адлере) (Краснодарский край, Россия) (5 км)
Погода в Сочи (Краснодарский край, Россия) (25 км)
Погода в Кепше (Краснодарский край, Россия) (26 км)
Погода в Красной Поляне (Краснодарский край, Россия) (37 км)
Погода в Горная Карусель 1500 (Краснодарский край, Россия) (39 км)
Погода в Горная Карусель 1000 (Краснодарский край, Россия) (39 км)
Погода на Кордоне Лаура (Краснодарский край, Россия) (44 км)
Погода в Солох Ауле (Краснодарский край, Россия) (51 км)
Погода в Кичмае (Краснодарский край, Россия) (60 км)
Погода в Гузерипле (Адыгея, Россия) (68 км)

Пояснения к столбцам:

Ветер - указаны скорость ветра в м/с - средняя за 10 мин, порывы в срок и между сроками (в фигурных скобках) и направление, откуда дует ветер: С - северный, СВ - северо-восточный, В - восточный, ЮВ - юго-восточный, Ю - южный, ЮЗ - юго-западный, З - западный, СЗ - северо-западный.
Видимость - горизонтальная дальность видимости в метрах или километрах. При видимости от 1 до 10 км при отсутствии осадков обычно наблюдается дымка, при ухудшении видимости до 1 км и менее - туман. В сухую погоду видимость может ухудшаться дымом, пылью или мглою.
Явления - указаны атмосферные явления, наблюдавшиеся в срок или в последний час перед сроком; фигурными скобками обозначены явления, наблюдавшиеся между сроками (за 1-3 часа до срока); квадратными скобками обозначены град или гололедные отложения с указанием их диаметра в мм.
Облачность - указаны через наклонную черту общая и нижняя облачность в баллах и высота нижней границы облаков в метрах; квадратными скобками обозначены формы облаков: Ci - перистые, Cs - перисто-слоистые, Cc - перисто-кучевые, Ac - высококучевые, As - высокослоистые, Sc - слоисто-кучевые, Ns - слоисто-дождевые, Cu - кучевые, Cb - кучево-дождевые. Подробнее классификацию облаков см. в Атласе облаков (PDF).
T - Температура воздуха - температура, измеренная на высоте 2 м над землей.
Td - Температура точки росы - температура, при понижении до которой содержащийся в воздухе водяной пар достигнет насыщения.
f - Относительная влажность воздуха - влажноcть воздуха, измеренная на высоте 2 м над землей.
Te - Эффективная температура - температура, которую ощущает одетый по сезону человек в тени. Характеристика душности погоды. При расчете учитывается влияние влажности воздуха и скорости ветра на теплоощущения человека.
Tes - Эффективная температура на солнце - температура, которую ощущает человек, с поправкой на солнечный нагрев. Характеристика знойности погоды. Зависит от высоты солнца над горизонтом, облачности и скорости ветра. Ночью, в пасмурную погоду, а также при ветре 12 м/с и более поправка равна нулю.
P - Атмосферное давление - приведенное к уровню моря атмосферное давление.
Po - Атмосферное давление - измеренное на уровне метеостанции атмосферное давление.
Tmin - Минимальная температура - минимум температуры воздуха на высоте 2 м над землей.
Tmax - Максимальная температура - максимум температуры воздуха на высоте 2 м над землей.
R - Количество осадков - Количество выпавших осадков за период времени, мм. При наведении курсора мыши на число - период времени, за который выпало указанное количество осадков.
R24 - Количество осадков - Количество выпавших осадков за 24 часа, мм.
S - Снежный покров - Высота снежного покрова, см. При наведении курсора мыши на число - состояние снежного покрова и степень покрытия местности в баллах.